Time,TemperatureF,DewpointF,PressureIn,WindDirection,WindDirectionDegrees,WindSpeedMPH,WindSpeedGustMPH,Humidity,HourlyPrecipIn,Conditions,Clouds,dailyrainin,SoftwareType,DateUTC
2013-06-28 00:00:00,52.0,52.0,-100.00,North,-999,-999.0,-999.0,100,-99.99,,,0.01,,2013-06-28 07:00:00,
2013-06-28 01:00:00,52.0,52.0,-100.00,West,279,0.0,1.0,101,-99.99,,,0.01,,2013-06-28 08:00:00,
2013-06-28 02:00:00,52.0,52.0,-100.00,SSE,168,1.0,2.0,101,-99.99,,,0.01,,2013-06-28 09:00:00,
2013-06-28 03:00:00,52.0,52.0,-100.00,SSE,167,1.0,2.0,100,-99.99,,,0.01,,2013-06-28 10:00:00,
2013-06-28 04:00:00,55.0,55.0,-100.00,WNW,297,0.0,2.0,99,-99.99,,,0.01,,2013-06-28 11:00:00,
2013-06-28 05:00:00,56.0,51.0,-100.00,East,95,0.0,2.0,85,-99.99,,,0.00,,2013-06-28 12:00:00,
2013-06-28 06:00:00,56.0,47.0,-100.00,West,270,0.0,0.0,71,-99.99,,,0.01,,2013-06-28 13:00:00,
2013-06-28 07:00:00,58.0,48.0,-100.00,NNE,27,0.0,2.0,67,-99.99,,,-99.99,,2013-06-28 14:00:00,
2013-06-28 08:00:00,60.0,46.0,-100.00,NNE,29,1.0,3.0,59,-99.99,,,0.00,,2013-06-28 15:00:00,
2013-06-28 09:00:00,61.0,47.0,-100.00,North,-999,-999.0,-999.0,60,-99.99,,,0.01,,2013-06-28 16:00:00,
2013-06-28 10:00:00,65.0,49.0,-100.00,North,-999,-999.0,-999.0,57,-99.99,,,0.00,,2013-06-28 17:00:00,
2013-06-28 11:00:00,67.0,51.0,-100.00,SSE,162,1.0,4.0,56,-99.99,,,0.00,,2013-06-28 18:00:00,
2013-06-28 11:52:00,67.0,51.0,-100.00,SSE,162,1.0,4.0,56,-99.99,,,0.00,,2013-06-28 18:52:00,
2013-06-28 12:00:00,69.0,57.0,-100.00,NNE,21,2.0,4.0,66,-99.99,,,-99.99,,2013-06-28 19:00:00,
2013-06-28 12:53:00,69.0,57.0,-100.00,NNE,21,2.0,4.0,66,-99.99,,,-99.99,,2013-06-28 19:53:00,
2013-06-28 13:00:00,67.0,57.0,-100.00,West,264,2.0,5.0,70,-99.99,,,-99.99,,2013-06-28 20:00:00,
2013-06-28 14:00:00,68.0,58.0,-100.00,North,0,2.0,5.0,71,-99.99,,,-99.99,,2013-06-28 21:00:00,
2013-06-28 14:53:00,68.0,58.0,-100.00,North,0,2.0,5.0,71,-99.99,,,-99.99,,2013-06-28 21:53:00,
2013-06-28 15:00:00,69.0,59.0,-100.00,NNE,23,2.0,5.0,72,-99.99,,,-99.99,,2013-06-28 22:00:00,
2013-06-28 16:00:00,68.0,57.0,-100.00,NNE,14,2.0,6.0,69,-99.99,,,-99.99,,2013-06-28 23:00:00,
2013-06-28 16:53:00,68.0,57.0,-100.00,NNE,14,2.0,6.0,69,-99.99,,,-99.99,,2013-06-28 23:53:00,
2013-06-28 17:00:00,68.0,57.0,-100.00,South,190,2.0,4.0,67,-99.99,,,-99.99,,2013-06-29 00:00:00,
2013-06-28 17:52:00,68.0,57.0,-100.00,South,190,2.0,4.0,67,-99.99,,,-99.99,,2013-06-29 00:52:00,
2013-06-28 18:00:00,66.0,57.0,-100.00,NE,47,1.0,3.0,74,-99.99,,,-99.99,,2013-06-29 01:00:00,
2013-06-28 18:52:00,66.0,57.0,-100.00,NE,47,1.0,3.0,74,-99.99,,,-99.99,,2013-06-29 01:52:00,
2013-06-28 19:00:00,64.0,57.0,-100.00,NW,321,1.0,4.0,78,-99.99,,,-99.99,,2013-06-29 02:00:00,
2013-06-28 19:41:00,64.0,57.0,-100.00,NW,321,1.0,4.0,78,-99.99,,,-99.99,,2013-06-29 02:41:00,
2013-06-28 19:51:00,64.0,57.0,-100.00,NW,321,1.0,4.0,78,-99.99,,,-99.99,,2013-06-29 02:51:00,
2013-06-28 20:00:00,61.0,57.0,-100.00,North,11,1.0,3.0,85,-99.99,,,-99.99,,2013-06-29 03:00:00,
2013-06-28 20:51:00,61.0,57.0,-100.00,North,11,1.0,3.0,85,-99.99,,,-99.99,,2013-06-29 03:51:00,
2013-06-28 21:00:00,59.0,56.0,-100.00,NNE,27,0.0,1.0,92,-99.99,,,-99.99,,2013-06-29 04:00:00,
2013-06-28 21:51:00,59.0,56.0,-100.00,NNE,27,0.0,1.0,92,-99.99,,,-99.99,,2013-06-29 04:51:00,
2013-06-28 22:00:00,59.0,58.0,-100.00,North,351,1.0,2.0,97,-99.99,,,-99.99,,2013-06-29 05:00:00,
2013-06-28 22:52:00,59.0,58.0,-100.00,North,351,1.0,2.0,97,-99.99,,,-99.99,,2013-06-29 05:52:00,
2013-06-28 23:00:00,58.0,57.0,-100.00,ESE,115,1.0,2.0,98,-99.99,,,-99.99,,2013-06-29 06:00:00,
2013-06-28 23:53:00,58.0,57.0,-100.00,ESE,115,1.0,2.0,98,-99.99,,,-99.99,,2013-06-29 06:53:00,